Overview Statistics Trail Chart Weather Telemetry Raw packets
 

This is the latest recevied weather packets stored in our database for station/object 4S6DRJ-13. If no packets are shown the sender has not sent any weather packets the latest 10 day(s).

<< 10 11 12 13 14 15 16 >>
Time Temp. Humidity Pressure Rain* Wind** Luminosity Snow
1788427723 30.56° C 71% 1007.4 hPa 0 mm 1.34 m/s, 231° 396 W/m² -
1788427663 30.56° C 70% 1007.2 hPa 0 mm 0.89 m/s, 204° 390 W/m² -
1788427601 30.56° C 71% 1007.2 hPa 0 mm 3.58 m/s, 247° 399 W/m² -
1788427540 30.56° C 72% 1007.2 hPa 0 mm 1.34 m/s, 202° 412 W/m² -
1788427479 30.56° C 71% 1007.4 hPa 0 mm 3.13 m/s, 263° 404 W/m² -
1788427418 30.56° C 70% 1007.2 hPa 0 mm 1.79 m/s, 184° 360 W/m² -
1788427357 31.11° C 70% 1007.4 hPa 0 mm 3.13 m/s, 288° 392 W/m² -
1788427296 31.11° C 70% 1007.3 hPa 0 mm 2.24 m/s, 248° 362 W/m² -
1788427236 31.11° C 71% 1007.2 hPa 0 mm 1.34 m/s, 153° 449 W/m² -
1788427175 31.11° C 71% 1007.1 hPa 0 mm 0.89 m/s, 228° 370 W/m² -
1788427114 31.11° C 70% 1007.2 hPa 0 mm 1.34 m/s, 211° 503 W/m² -
1788427053 31.11° C 70% 1007.3 hPa 0 mm 2.24 m/s, 286° 521 W/m² -
1788426992 31.11° C 69% 1007.3 hPa 0 mm 2.24 m/s, 138° 402 W/m² -
1788426931 31.11° C 69% 1007.4 hPa 0 mm 0.89 m/s, 257° 436 W/m² -
1788426870 31.11° C 70% 1007.4 hPa 0 mm 2.68 m/s, 185° 413 W/m² -
1788426809 31.11° C 71% 1007.1 hPa 0 mm 0.89 m/s, 289° 396 W/m² -
1788426748 31.11° C 70% 1007.2 hPa 0 mm 2.68 m/s, 275° 425 W/m² -
1788426687 31.11° C 70% 1007.4 hPa 0 mm 1.34 m/s, 226° 683 W/m² -
1788426626 31.11° C 70% 1007.4 hPa 0 mm 0.89 m/s, 323° 411 W/m² -
1788426565 31.11° C 69% 1007.4 hPa 0 mm 3.13 m/s, 29° 413 W/m² -
1788426504 31.11° C 68% 1007.6 hPa 0 mm 2.68 m/s, 291° 775 W/m² -
1788426443 31.11° C 68% 1007.4 hPa 0 mm 2.68 m/s, 155° 814 W/m² -
1788426382 31.11° C 69% 1007.4 hPa 0 mm 2.68 m/s, 242° 861 W/m² -
1788426321 31.67° C 68% 1007.4 hPa 0 mm 2.68 m/s, 227° 922 W/m² -
1788426260 31.67° C 68% 1007.3 hPa 0 mm 2.24 m/s, 305° 730 W/m² -

* Rain latest hour (hover to see other rain measurements)
** Current wind speed in m/s (hover to see current wind gust speed)